Probability
0 0 0 0 0 0 0 0 0 0 0 0 0 0 0 0 0 0 0 0 0 0 0 0 0 0 0 0 0 0 0 0 0 0 0 0 0 0 0 0 0 0 0 0
0 0 0 0 0 0 0 0 0 0 0 0 0 0 0 0 0 0 0 0 0 0 0 0 0 0 0 0 0 3 3 3 0 0 0 0 0 0 0 0 0 0 0 0
0 0 0 0 0 0 0 0 0 0 0 0 0 0 0 0 0 0 0 0 0 0 0 0 0 0 0 0 0 3 3 3 0 0 0 0 0 0 0 0 0 0 0 0
0 0 0 0 0 0 0 0 0 0 0 0 0 0 0 0 0 0 0 0 0 0 0 0 0 0 0 0 0 0 0 0 0 0 0 0 0 0 0 0 0 0 0 0
0 0 0 0 0 0 0 0 0 0 0 0 0 0 0 0 0 0 0 0 0 0 0 0 0 0 0 0 0 0 0 0 0 0 0 0 0 0 0 0 0 0 0 0
0 0 0 0 0 0 0 0 0 0 0 0 0 0 0 0 0 0 0 0 0 0 0 0 0 0 0 0 0 0 0 0 0 0 0 0 0 0 0 0 0 0 0 0
0 0 0 0 0 0 0 0 0 0 0 0 0 0 0 0 0 0 0 0 0 0 0 0 0 0 0 0 0 0 0 0 0 0 0 0 0 0 0 0 0 0 0 0
0 0 0 0 0 0 0 0 0 0 0 0 0 0 0 0 0 0 0 0 0 0 0 0 0 0 0 0 0 0 0 0 0 0 0 0 0 0 0 0 0 0 0 0
0 0 0 0 0 0 0 0 0 0 0 0 0 0 0 0 0 0 0 0 0 0 0 0 0 0 0 0 0 0 0 0 0 0 0 0 0 0 0 0 0 0 0 0
0 0 0 0 0 0 0 0 0 0 0 0 0 0 0 0 0 0 0 0 0 0 0 0 0 0 0 0 0 0 0 0 0 0 0 0 0 0 0 0 0 0 0 0
0 0 0 0 0 0 0 0 0 0 0 0 0 0 0 0 0 0 0 0 0 0 0 0 0 0 0 0 0 0 0 0 0 0 0 0 0 0 0 0 0 0 0 0
0 0 0 0 0 0 0 0 0 0 0 0 0 0 0 0 0 0 0 0 0 0 0 0 0 0 0 0 0 0 0 0 0 0 0 0 0 0 0 0 0 0 0 0
0 0 0 0 0 0 0 0 0 0 0 0 0 0 0 0 0 0 0 0 0 0 0 0 0 0 0 0 0 0 0 0 0 0 0 0 0 0 0 0 0 0 0 0
0 0 0 0 0 0 0 0 0 0 0 0 0 0 0 0 0 0 0 0 0 0 0 0 0 0 0 0 0 0 0 0 0 0 0 0 0 0 0 0 0 0 0 0
0 0 0 0 0 0 0 0 0 0 0 0 0 0 0 0 0 0 0 0 0 0 0 0 0 0 0 0 0 0 0 0 0 0 0 0 0 0 0 0 0 0 0 0
0 0 0 0 0 0 0 0 0 0 0 0 0 0 0 0 0 0 0 0 0 0 0 0 0 0 0 0 0 0 0 0 0 0 0 0 0 0 0 0 0 0 0 0
0 0 0 0 0 0 0 0 0 0 0 0 0 0 0 0 0 0 0 0 0 0 0 0 0 0 0 0 0 0 0 0 0 0 0 0 0 0 0 0 0 0 0 0
0 0 0 0 0 0 0 0 0 0 0 0 0 0 0 0 0 0 0 0 0 0 0 0 0 0 0 0 0 0 0 0 0 0 0 0 0 0 0 0 0 0 0 0
0 0 0 0 0 0 0 0 0 0 0 0 0 0 0 0 0 0 0 0 0 0 0 0 0 0 0 0 0 0 0 0 0 0 0 0 0 0 0 0 0 0 0 0
0 0 0 0 0 0 0 0 0 0 0 0 0 0 0 0 0 0 0 0 0 0 0 0 0 0 0 0 0 0 0 0 0 0 0 0 0 0 0 0 0 0 0 0
0 0 0 0 0 0 0 0 0 0 0 0 0 0 0 0 0 0 0 0 0 0 0 0 0 0 0 0 0 0 0 0 0 0 0 0 0 0 0 0 0 0 0 0
0 0 0 0 0 0 0 0 0 0 0 0 0 0 0 0 0 0 0 0 0 0 0 0 0 0 0 0 0 0 0 0 0 0 0 0 0 0 0 0 0 0 0 0
0 0 0 0 0 0 0 0 0 0 0 0 0 0 0 0 0 0 0 0 0 0 0 0 0 0 0 0 0 0 0 0 0 0 0 0 0 0 0 0 0 0 0 0
0 0 0 0 0 0 0 0 0 0 0 0 0 0 0 0 0 0 0 0 0 0 0 0 0 0 0 0 0 0 0 0 0 0 0 0 0 0 0 0 0 0 0 0
0 0 0 0 0 0 0 0 0 0 0 0 0 0 0 0 0 0 0 0 0 0 0 0 0 0 0 0 0 0 0 0 0 0 0 0 0 0 0 0 0 0 0 0
0 0 0 0 0 0 0 0 0 0 0 0 0 0 0 0 0 0 0 0 0 0 0 0 0 0 0 0 0 0 0 0 0 0 0 0 0 0 0 0 0 0 0 0
Height
5681 5683 5686 5690 5692 5693 5694 5696 5698 5700 5701 5701 5703 5706 5709 5709 5711 5713 5714 5715 5717 5718 5720 5721 5722 5723 5725 5727 5728 5730 5732 5734 5737 5739 5741 5743 5747 5750 5754 5758 5762 5766 5769 5773
5667 5671 5677 5677 5678 5680 5682 5684 5687 5689 5689 5690 5692 5695 5698 5700 5701 5703 5704 5706 5707 5708 5710 5711 5712 5713 5715 5717 5719 5721 5723 5725 5727 5730 5732 5734 5737 5740 5745 5749 5753 5757 5760 5764
5653 5661 5662 5663 5665 5667 5670 5673 5676 5677 5677 5678 5680 5683 5688 5690 5690 5692 5694 5696 5697 5698 5700 5701 5702 5704 5705 5707 5709 5711 5712 5715 5717 5720 5722 5725 5728 5731 5735 5740 5744 5748 5751 5755
5639 5645 5646 5648 5652 5655 5658 5662 5663 5663 5664 5666 5668 5669 5677 5679 5680 5682 5684 5685 5687 5688 5689 5691 5692 5693 5695 5697 5698 5700 5702 5704 5706 5709 5712 5715 5719 5722 5726 5730 5734 5738 5742 5746
5626 5631 5632 5635 5640 5642 5646 5648 5649 5650 5651 5653 5656 5657 5665 5667 5669 5671 5673 5674 5676 5677 5679 5680 5682 5683 5684 5685 5687 5689 5691 5693 5696 5699 5701 5705 5708 5712 5716 5720 5724 5728 5733 5737
5612 5615 5617 5622 5626 5628 5631 5634 5636 5636 5637 5640 5647 5646 5650 5656 5659 5660 5662 5664 5665 5667 5668 5669 5671 5671 5673 5674 5676 5678 5680 5683 5685 5688 5691 5694 5698 5702 5705 5709 5714 5718 5723 5727
5597 5600 5604 5607 5611 5614 5617 5621 5622 5623 5624 5628 5635 5634 5639 5645 5648 5649 5651 5653 5654 5656 5657 5658 5660 5661 5662 5663 5665 5667 5670 5673 5675 5678 5681 5684 5688 5692 5695 5699 5704 5708 5713 5718
5581 5586 5590 5593 5598 5602 5605 5608 5610 5612 5614 5619 5621 5623 5630 5634 5636 5638 5640 5642 5644 5646 5647 5648 5649 5650 5652 5653 5655 5657 5659 5662 5665 5668 5672 5675 5679 5682 5686 5690 5695 5699 5704 5709
5568 5573 5578 5582 5585 5589 5592 5595 5599 5601 5602 5605 5607 5612 5619 5622 5624 5627 5629 5631 5633 5635 5637 5638 5639 5640 5642 5644 5646 5648 5650 5652 5654 5658 5662 5665 5669 5673 5677 5681 5685 5689 5695 5699
5555 5560 5565 5569 5572 5576 5580 5584 5586 5587 5589 5592 5596 5601 5608 5612 5614 5616 5618 5620 5622 5624 5626 5628 5629 5631 5632 5633 5635 5637 5639 5642 5645 5648 5651 5656 5660 5663 5667 5672 5676 5680 5685 5690
5543 5547 5552 5556 5559 5564 5568 5571 5573 5576 5579 5582 5585 5593 5597 5600 5603 5605 5608 5609 5612 5614 5616 5617 5619 5620 5622 5623 5625 5627 5630 5632 5635 5638 5642 5646 5650 5654 5658 5662 5666 5671 5675 5679
5531 5535 5539 5544 5549 5552 5555 5559 5563 5566 5568 5572 5574 5582 5586 5589 5591 5594 5596 5599 5601 5603 5605 5607 5608 5610 5612 5613 5615 5617 5620 5623 5626 5629 5633 5637 5641 5644 5648 5652 5656 5661 5665 5669
5520 5523 5527 5531 5536 5539 5542 5547 5551 5554 5557 5559 5563 5571 5574 5577 5580 5583 5586 5588 5590 5592 5594 5596 5597 5599 5601 5603 5605 5608 5610 5613 5616 5619 5623 5627 5630 5634 5638 5642 5646 5650 5654 5658
5508 5511 5515 5519 5522 5526 5530 5535 5539 5542 5544 5548 5553 5559 5563 5566 5569 5571 5574 5576 5579 5581 5583 5585 5587 5588 5590 5593 5595 5598 5600 5603 5606 5609 5612 5616 5619 5623 5627 5631 5635 5639 5643 5647
5497 5500 5503 5507 5510 5514 5518 5524 5528 5531 5534 5538 5543 5547 5552 5555 5557 5560 5562 5564 5567 5569 5572 5574 5576 5578 5580 5582 5584 5587 5590 5593 5596 5598 5601 5605 5608 5612 5616 5620 5624 5628 5632 5636
5486 5489 5492 5496 5500 5502 5506 5512 5516 5520 5524 5527 5531 5535 5540 5542 5545 5548 5550 5553 5555 5558 5560 5562 5564 5567 5569 5571 5573 5576 5579 5582 5584 5587 5590 5593 5597 5600 5604 5608 5612 5616 5620 5624
5476 5479 5482 5485 5489 5491 5496 5501 5505 5508 5512 5516 5519 5525 5527 5530 5533 5536 5539 5541 5543 5546 5549 5551 5553 5556 5558 5561 5563 5565 5567 5570 5573 5576 5579 5582 5585 5589 5593 5597 5601 5605 5608 5612
5468 5470 5472 5475 5479 5481 5489 5492 5494 5497 5500 5504 5507 5511 5515 5518 5521 5524 5526 5529 5531 5534 5536 5539 5542 5544 5547 5549 5552 5554 5557 5559 5562 5565 5568 5571 5574 5578 5582 5585 5589 5593 5597 5601
5459 5461 5463 5466 5468 5471 5478 5481 5483 5486 5489 5493 5496 5500 5503 5506 5508 5512 5515 5517 5520 5522 5525 5527 5530 5533 5535 5538 5540 5543 5546 5549 5551 5554 5557 5560 5563 5566 5570 5574 5578 5581 5585 5588
5452 5454 5456 5458 5460 5463 5469 5472 5473 5476 5479 5484 5486 5489 5492 5495 5498 5503 5505 5507 5509 5512 5514 5516 5519 5521 5524 5526 5529 5532 5535 5538 5540 5543 5545 5548 5551 5555 5558 5562 5566 5569 5572 5576
5446 5447 5449 5451 5453 5456 5460 5462 5465 5470 5472 5474 5476 5479 5482 5485 5488 5492 5494 5496 5499 5501 5504 5506 5508 5511 5513 5515 5518 5521 5524 5527 5529 5531 5534 5537 5540 5543 5546 5550 5553 5556 5559 5563
5440 5442 5444 5446 5448 5452 5453 5455 5458 5460 5462 5464 5467 5470 5473 5475 5478 5481 5484 5486 5488 5491 5493 5496 5499 5501 5503 5505 5507 5510 5513 5516 5518 5521 5523 5526 5529 5532 5535 5538 5541 5543 5546 5550
5436 5437 5438 5441 5444 5444 5446 5447 5450 5452 5454 5457 5459 5462 5464 5467 5470 5472 5474 5477 5479 5481 5483 5486 5488 5491 5494 5496 5498 5500 5503 5505 5508 5510 5513 5515 5518 5520 5523 5526 5529 5531 5534 5537
5432 5433 5434 5435 5437 5439 5440 5442 5443 5445 5447 5449 5451 5454 5456 5458 5461 5463 5465 5467 5469 5471 5473 5476 5478 5481 5484 5486 5488 5490 5493 5495 5498 5500 5502 5504 5507 5510 5512 5514 5516 5519 5521 5524
5428 5429 5429 5431 5432 5433 5435 5436 5437 5439 5440 5442 5444 5446 5448 5450 5453 5455 5457 5458 5460 5462 5464 5466 5468 5471 5474 5476 5479 5481 5483 5486 5488 5490 5493 5495 5497 5499 5501 5503 5505 5507 5509 5511
5424 5424 5425 5426 5427 5428 5429 5430 5431 5432 5433 5435 5437 5439 5440 5442 5444 5446 5448 5450 5451 5453 5455 5457 5459 5462 5464 5467 5470 5472 5474 5477 5479 5481 5484 5485 5487 5489 5490 5492 5494 5496 5498 5499
Wind_Speed
46 46 45 42 41 42 41 41 41 40 40 41 41 39 37 38 38 37 36 36 35 35 35 35 36 36 37 37 38 39 40 40 40 40 39 39 39 40 41 42 41 41 40 41
48 48 45 45 45 44 44 43 42 42 43 43 43 41 39 39 39 38 38 37 37 36 36 36 36 37 37 37 38 38 39 40 40 41 41 40 39 40 41 42 42 43 42 42
49 47 46 47 47 47 46 45 44 44 44 45 45 44 41 39 40 40 39 38 38 38 38 37 37 37 38 38 38 39 39 40 41 41 43 42 41 41 42 42 43 43 43 43
49 48 49 49 48 48 47 45 45 46 46 46 46 46 41 40 40 40 39 38 38 38 39 38 38 38 38 39 39 40 40 41 41 42 44 43 42 42 42 43 44 43 43 43
49 48 49 49 47 48 47 46 46 47 47 48 46 47 42 41 40 40 39 39 39 39 39 39 39 39 39 39 39 40 41 41 42 42 44 45 44 43 43 44 45 45 44 43
49 48 48 48 46 47 48 47 47 48 48 50 45 46 45 41 40 39 39 39 38 38 38 39 38 38 39 39 39 39 40 42 42 42 43 44 44 43 43 44 45 45 45 44
48 48 48 47 46 46 47 47 47 48 50 50 45 46 45 40 38 38 38 37 37 36 37 37 38 38 38 38 38 39 40 41 42 43 43 44 44 42 41 42 44 45 45 44
45 46 45 46 45 45 45 46 47 49 49 48 46 46 44 41 39 38 37 36 36 36 36 36 36 36 36 37 38 38 39 40 42 43 43 45 44 42 41 41 43 43 44 43
43 44 43 43 43 43 44 46 46 47 49 49 48 46 43 40 38 37 37 36 36 36 36 35 35 36 36 36 37 38 38 40 41 43 44 46 44 41 40 41 43 43 43 43
42 43 42 41 42 43 43 42 43 46 48 48 48 46 43 40 38 37 36 36 35 35 35 35 35 36 36 36 37 37 38 39 40 41 45 45 44 42 41 41 43 43 43 43
41 42 42 42 43 43 43 42 43 45 47 47 48 46 43 41 39 37 36 36 36 35 35 35 35 36 36 35 35 36 37 38 39 41 43 44 44 43 42 42 42 42 42 42
38 40 41 41 41 41 41 42 42 44 45 46 46 46 43 42 41 39 37 36 36 36 36 35 36 36 36 36 36 36 36 36 38 41 42 43 44 44 44 44 44 45 44 43
37 40 40 41 42 43 43 42 42 42 43 44 44 44 42 42 41 40 38 37 37 37 36 36 36 36 36 36 36 36 36 36 38 40 42 43 44 44 44 44 44 44 44 44
37 39 41 42 40 43 44 44 43 43 44 44 44 42 40 40 40 40 40 39 38 38 37 37 37 36 36 36 37 37 38 39 40 41 42 43 44 45 46 45 45 45 45 45
36 38 39 41 40 41 42 42 42 43 43 43 43 42 40 39 39 39 40 40 39 38 38 37 37 36 36 37 38 38 39 40 40 41 42 42 44 45 46 46 47 47 45 45
35 36 37 38 38 39 40 41 41 42 42 42 43 43 42 42 42 41 41 40 40 39 39 38 37 37 37 37 38 38 38 39 40 40 41 41 43 44 45 46 47 48 47 46
31 35 37 38 38 39 40 39 40 41 41 41 42 40 41 42 42 42 42 41 41 40 40 39 39 39 38 38 38 38 38 39 39 39 39 40 41 42 43 45 46 46 45 46
30 31 34 36 37 39 38 38 39 40 40 39 39 38 39 40 40 41 42 42 42 41 40 39 39 39 38 38 39 40 39 39 39 39 39 40 42 42 43 43 44 44 44 44
26 27 30 33 35 37 36 36 37 37 37 37 37 37 37 37 37 38 39 39 40 40 40 39 39 39 39 39 39 39 39 39 39 40 40 41 42 43 42 43 43 43 44 45
24 24 25 27 30 33 34 34 34 35 36 35 35 35 36 36 36 35 36 36 37 37 38 38 37 37 37 38 38 39 39 39 39 40 40 41 42 43 43 42 43 44 45 45
21 22 22 23 25 26 28 30 31 32 33 33 34 34 34 34 34 34 34 35 35 35 36 36 35 35 35 36 36 37 37 37 38 40 40 40 42 42 42 43 44 45 46 46
16 18 20 21 22 22 23 25 28 29 29 31 32 32 33 33 33 32 31 32 32 33 34 34 34 33 33 34 34 35 35 36 38 39 40 40 41 41 41 42 44 44 45 46
13 14 16 17 19 20 22 23 24 26 27 29 30 30 31 32 32 31 31 31 31 32 32 33 34 34 33 33 33 33 34 35 36 37 38 38 39 40 40 41 42 43 44 46
12 13 14 15 16 17 19 22 23 24 25 26 27 28 29 29 29 29 29 30 31 31 31 32 33 33 34 33 33 32 33 34 35 35 36 37 38 38 38 39 40 42 44 45
11 13 14 15 15 16 17 19 21 22 22 23 25 26 26 27 27 27 27 28 29 29 29 30 32 33 33 33 33 33 33 33 33 34 34 36 36 36 37 38 39 40 42 43
11 12 14 15 15 15 15 16 18 20 21 23 24 24 24 25 26 26 26 27 28 29 29 30 30 31 33 34 33 33 33 33 33 33 33 33 35 35 35 36 37 38 39 40
Wind_Direction
254 253 254 256 257 257 256 256 255 255 256 256 256 255 254 255 256 257 257 257 258 256 255 254 253 253 253 253 252 251 250 250 249 245 243 243 243 243 241 238 238 239 239 240
254 254 255 255 255 256 256 256 256 256 256 257 256 255 254 254 256 257 257 258 258 257 255 254 254 253 253 253 253 252 250 251 249 245 242 243 243 243 241 239 239 239 240 240
256 255 254 253 253 255 255 256 257 257 256 257 257 255 254 254 255 256 256 256 257 256 255 255 254 254 254 253 253 252 250 249 249 247 243 244 244 243 241 239 239 239 240 240
254 253 252 252 252 254 254 255 256 256 256 256 256 257 253 254 255 256 256 256 255 255 255 255 254 255 254 254 253 252 250 249 248 246 244 243 243 242 240 239 239 238 239 239
253 253 253 253 252 252 253 253 253 253 254 255 255 257 254 253 254 255 256 256 256 256 256 255 255 255 254 253 253 251 250 249 248 246 244 243 242 242 240 239 238 238 238 240
252 252 252 252 250 249 249 249 250 251 252 253 254 257 256 253 255 256 256 256 256 257 256 255 255 255 253 252 251 250 249 248 247 246 245 243 241 242 241 239 237 237 237 239
251 250 250 250 248 246 246 247 248 249 250 253 254 255 256 256 256 256 256 256 255 255 255 254 254 252 251 251 250 250 249 247 247 246 244 242 240 240 241 240 238 237 237 238
251 249 248 247 247 246 246 246 247 250 253 254 254 254 255 256 255 255 255 254 254 254 253 253 252 250 250 249 249 249 248 247 245 245 243 240 240 241 241 240 237 236 236 237
249 249 247 247 246 245 244 244 246 249 251 252 253 253 253 254 255 254 255 254 254 254 253 252 250 250 250 249 249 249 249 248 247 244 242 239 239 241 241 239 237 236 236 237
246 247 245 246 246 244 244 245 244 245 248 250 251 252 252 253 254 253 254 253 253 254 254 252 251 249 249 249 249 249 250 250 248 245 241 236 239 241 239 238 237 238 238 241
245 245 243 243 243 243 242 241 242 245 247 249 251 252 252 254 255 254 254 253 253 254 255 253 251 250 250 250 249 250 249 248 247 245 241 240 241 240 238 237 237 237 239 241
244 245 244 244 243 243 243 243 242 243 246 248 251 252 252 253 254 254 253 252 253 254 255 255 253 252 252 251 250 249 247 246 245 242 240 241 242 240 238 238 239 240 240 241
243 244 244 243 241 240 240 242 242 243 245 246 248 250 251 254 254 254 253 252 252 253 254 255 254 253 252 251 248 247 245 245 244 242 242 243 243 241 240 239 239 239 241 243
244 244 242 242 242 242 239 239 240 242 244 246 247 249 250 252 254 253 253 252 252 253 253 253 254 253 251 250 248 248 248 246 246 247 245 244 242 241 240 240 241 241 242 243
245 244 242 241 241 242 241 240 241 242 245 247 248 248 249 250 251 251 251 252 251 251 251 251 252 252 251 250 248 248 247 246 247 247 245 244 244 241 240 241 242 242 243 244
242 244 242 241 241 241 241 241 241 242 244 246 247 248 249 251 252 252 251 251 251 251 250 250 251 251 251 252 251 249 248 247 247 246 246 246 245 243 241 241 242 242 243 243
243 244 243 243 242 242 240 240 241 242 244 246 246 246 247 249 250 251 251 252 253 252 251 250 251 251 251 251 250 249 250 250 249 248 248 246 246 244 242 241 242 242 243 243
243 243 244 244 244 246 243 243 243 244 244 244 245 245 246 248 248 249 250 251 252 253 251 250 250 251 251 250 250 251 251 252 251 250 249 248 248 246 244 244 243 243 244 244
245 243 242 243 245 246 244 243 243 245 245 245 247 247 246 247 248 247 248 251 252 252 252 252 252 252 251 251 250 250 250 251 252 251 251 250 249 247 246 246 245 245 245 245
245 244 244 243 243 245 244 245 245 245 246 246 248 248 248 247 247 247 249 250 251 251 251 252 252 252 252 252 250 250 249 250 250 251 251 249 248 248 247 247 246 247 247 247
246 241 242 243 244 245 244 245 246 247 248 247 247 249 249 249 249 247 247 248 249 249 249 250 251 252 252 252 251 250 250 250 250 251 250 248 248 248 248 248 247 249 248 248
250 248 247 247 246 244 243 246 245 247 247 248 248 249 250 250 248 247 247 247 247 247 247 248 249 250 251 252 251 250 250 250 250 250 250 249 249 250 249 249 249 250 249 249
251 248 247 248 248 247 247 250 247 246 249 250 250 251 251 252 251 251 250 248 247 247 247 247 247 247 248 249 250 250 249 249 248 249 250 250 251 251 250 250 250 252 252 252
249 247 247 246 244 248 250 249 249 250 251 250 251 251 252 252 253 252 253 252 250 249 247 246 246 246 246 247 247 248 249 249 249 250 250 249 250 250 251 252 252 253 253 254
255 252 251 250 250 250 251 253 251 249 251 251 251 252 251 251 251 252 252 252 250 249 247 247 246 245 245 245 245 247 249 249 250 250 251 250 250 251 252 253 252 253 253 255
254 258 258 257 254 256 255 258 257 254 253 250 250 251 251 250 249 249 250 251 250 249 248 247 247 246 243 244 245 245 247 248 250 251 251 250 250 251 252 253 254 254 255 256